TIANZHOU-2 (48803 NORAD) Tracking and Keplerian Element Data

This shows tracking and keplerian element data for the satellite.

Feedback or suggestion? Click here.




ElementValue
Catalog48803
NameTIANZHOU-2
Epoch Orbit804
Epoch Day170.42071726
Epoch Year2021
RAAN269.495
Inclination41.4694
Eccentricity0.000829
Argument of Perigee309.0159
Mean Anonmoly141.1374
Mean Motion15.62452877
Decay Rate6.06E-05
L11 48803U 21046A 21170.42071726 .00006060 00000-0 69956-4 0 9997
L22 48803 41.4694 269.4950 0008290 309.0159 141.1374 15.62452877 8044

Live tracking and technical data element details for TIANZHOU-2 (NORAD 48803). TIANZHOU-2 can be tracked NOW for your location showing map with azimuth and elevation plus other details from your city location.

Track the satellite on the map from your city or location and see movement details for azimuth, elevation, latitude, longitude, range, height, and movement on the map or in text.







IsCatalogInMostPopularTable: catalog: 48803, numindb: 9
Update: records affected: 1



GetName: 48803 TIANZHOU-2

Hit Count: updated at: Mon, 21 Jun 2021 04:21:57 GMT